When you browse on this site, cookies collect data to enhance your experience and personalize the content and advertising you see.
Visit our Privacy Policy to learn more. By continuing to use the site, you agree to this use of cookies and data.

Stündliche Wetter Dymytrov

Heute, 23 September, Mittwoch

Zeit Temperatur Niederschläge Wind Luftdruck Luftfeuchtigkeit
00:00 +12°C° 0 mm 0 m/S 748 mmHg 34%
01:00 +12°C° 0 mm 0 m/S 748 mmHg 35%
02:00 +13°C° 0 mm 1 m/S 748 mmHg 35%
03:00 +12°C° 0 mm 1 m/S 748 mmHg 36%
04:00 +12°C° 0 mm 1 m/S 748 mmHg 36%
05:00 +12°C° 0 mm 1 m/S 748 mmHg 37%
06:00 +14°C° 0 mm 1 m/S 748 mmHg 33%
07:00 +17°C° 0 mm 2 m/S 748 mmHg 28%
08:00 +20°C° 0 mm 2 m/S 748 mmHg 24%
09:00 +21°C° 0 mm 2 m/S 748 mmHg 22%
10:00 +24°C° 0 mm 2 m/S 747 mmHg 19%
11:00 +26°C° 0 mm 3 m/S 747 mmHg 17%
12:00 +26°C° 0 mm 2 m/S 747 mmHg 16%
13:00 +27°C° 0 mm 2 m/S 746 mmHg 14%
14:00 +28°C° 0 mm 2 m/S 746 mmHg 13%
15:00 +26°C° 0 mm 2 m/S 746 mmHg 15%
16:00 +25°C° 0 mm 2 m/S 745 mmHg 16%
17:00 +23°C° 0 mm 1 m/S 745 mmHg 18%
18:00 +21°C° 0 mm 2 m/S 745 mmHg 20%
19:00 +19°C° 0 mm 2 m/S 745 mmHg 22%
20:00 +18°C° 0 mm 2 m/S 745 mmHg 24%
21:00 +17°C° 0 mm 2 m/S 745 mmHg 25%
22:00 +16°C° 0 mm 2 m/S 745 mmHg 26%
23:00 +16°C° 0 mm 2 m/S 745 mmHg 27%

Morgen, 24 September, Donnerstag

Zeit Temperatur Niederschläge Wind Luftdruck Luftfeuchtigkeit
00:00 +15°C° 0 mm 2 m/S 745 mmHg 29%
01:00 +15°C° 0 mm 2 m/S 745 mmHg 30%
02:00 +15°C° 0 mm 2 m/S 745 mmHg 32%
03:00 +14°C° 0 mm 2 m/S 745 mmHg 34%
04:00 +14°C° 0 mm 2 m/S 745 mmHg 35%
05:00 +14°C° 0 mm 2 m/S 745 mmHg 37%
06:00 +16°C° 0 mm 3 m/S 745 mmHg 34%
07:00 +18°C° 0 mm 3 m/S 745 mmHg 31%
08:00 +21°C° 0 mm 3 m/S 745 mmHg 28%
09:00 +23°C° 0 mm 4 m/S 745 mmHg 27%
10:00 +26°C° 0 mm 4 m/S 745 mmHg 27%
11:00 +28°C° 0 mm 4 m/S 745 mmHg 26%
12:00 +28°C° 0 mm 4 m/S 745 mmHg 25%
13:00 +29°C° 0 mm 4 m/S 745 mmHg 24%
14:00 +29°C° 0 mm 4 m/S 744 mmHg 23%
15:00 +28°C° 0 mm 3 m/S 744 mmHg 25%
16:00 +27°C° 0 mm 3 m/S 744 mmHg 27%
17:00 +25°C° 0 mm 2 m/S 744 mmHg 30%
18:00 +24°C° 0 mm 3 m/S 744 mmHg 32%
19:00 +21°C° 0 mm 3 m/S 744 mmHg 35%
20:00 +20°C° 0 mm 3 m/S 744 mmHg 37%
21:00 +19°C° 0 mm 3 m/S 744 mmHg 38%
22:00 +18°C° 0 mm 3 m/S 744 mmHg 39%
23:00 +18°C° 0 mm 3 m/S 744 mmHg 40%

übermorgen, 25 September, Freitag

Zeit Temperatur Niederschläge Wind Luftdruck Luftfeuchtigkeit
00:00 +17°C° 0 mm 3 m/S 744 mmHg 40%
01:00 +17°C° 0 mm 3 m/S 744 mmHg 40%
02:00 +16°C° 0 mm 3 m/S 744 mmHg 41%
03:00 +16°C° 0 mm 3 m/S 744 mmHg 43%
04:00 +16°C° 0 mm 3 m/S 744 mmHg 46%
05:00 +14°C° 0 mm 3 m/S 744 mmHg 49%
06:00 +17°C° 0 mm 4 m/S 744 mmHg 45%
07:00 +19°C° 0 mm 4 m/S 744 mmHg 41%
08:00 +21°C° 0 mm 5 m/S 744 mmHg 37%
09:00 +23°C° 0 mm 5 m/S 744 mmHg 35%
10:00 +26°C° 0 mm 5 m/S 744 mmHg 32%
11:00 +27°C° 0 mm 5 m/S 744 mmHg 29%
12:00 +28°C° 0 mm 5 m/S 743 mmHg 28%
13:00 +28°C° 0 mm 5 m/S 743 mmHg 28%
14:00 +29°C° 0 mm 5 m/S 743 mmHg 27%
15:00 +28°C° 0 mm 4 m/S 742 mmHg 30%
16:00 +26°C° 0 mm 4 m/S 742 mmHg 33%
17:00 +25°C° 0 mm 3 m/S 742 mmHg 36%
18:00 +24°C° 0 mm 3 m/S 742 mmHg 38%
19:00 +21°C° 0 mm 4 m/S 742 mmHg 39%
20:00 +20°C° 0 mm 4 m/S 742 mmHg 41%
21:00 +19°C° 0 mm 4 m/S 742 mmHg 41%
22:00 +19°C° 0 mm 4 m/S 741 mmHg 41%
23:00 +18°C° 0 mm 4 m/S 741 mmHg 41%

26 September, Samstag

Zeit Temperatur Niederschläge Wind Luftdruck Luftfeuchtigkeit
00:00 +18°C° 0 mm 4 m/S 741 mmHg 43%
01:00 +17°C° 0 mm 4 m/S 741 mmHg 45%
02:00 +15°C° 0 mm 4 m/S 741 mmHg 47%
03:00 +15°C° 0 mm 4 m/S 741 mmHg 48%
04:00 +15°C° 0 mm 4 m/S 741 mmHg 49%
05:00 +14°C° 0 mm 4 m/S 741 mmHg 51%
06:00 +16°C° 0 mm 5 m/S 741 mmHg 46%
07:00 +19°C° 0 mm 5 m/S 741 mmHg 41%
08:00 +21°C° 0 mm 6 m/S 741 mmHg 35%
09:00 +23°C° 0 mm 6 m/S 741 mmHg 31%
10:00 +26°C° 0 mm 6 m/S 741 mmHg 27%
11:00 +28°C° 0 mm 6 m/S 741 mmHg 23%
12:00 +29°C° 0 mm 7 m/S 741 mmHg 20%
13:00 +30°C° 0 mm 7 m/S 741 mmHg 17%
14:00 +30°C° 0 mm 7 m/S 740 mmHg 14%
15:00 +29°C° 0 mm 6 m/S 740 mmHg 16%
16:00 +28°C° 0 mm 5 m/S 740 mmHg 18%
17:00 +27°C° 0 mm 5 m/S 740 mmHg 20%
18:00 +24°C° 0 mm 6 m/S 740 mmHg 24%
19:00 +23°C° 0 mm 7 m/S 741 mmHg 29%
20:00 +22°C° 0 mm 8 m/S 741 mmHg 34%
21:00 +21°C° 0 mm 8 m/S 741 mmHg 39%
22:00 +20°C° 0 mm 8 m/S 741 mmHg 45%
23:00 +18°C° 0 mm 8 m/S 741 mmHg 50%

27 September, Sonntag

Zeit Temperatur Niederschläge Wind Luftdruck Luftfeuchtigkeit
00:00 +17°C° 0 mm 7 m/S 741 mmHg 50%
01:00 +17°C° 0 mm 7 m/S 741 mmHg 49%
02:00 +16°C° 0 mm 7 m/S 741 mmHg 48%
03:00 +16°C° 0 mm 7 m/S 741 mmHg 48%
04:00 +15°C° 0 mm 7 m/S 742 mmHg 48%
05:00 +15°C° 0 mm 8 m/S 742 mmHg 47%
06:00 +16°C° 0 mm 8 m/S 742 mmHg 45%
07:00 +17°C° 0 mm 9 m/S 742 mmHg 42%
08:00 +18°C° 0 mm 10 m/S 742 mmHg 40%
09:00 +21°C° 0 mm 10 m/S 742 mmHg 36%
10:00 +23°C° 0 mm 10 m/S 742 mmHg 31%
11:00 +24°C° 0 mm 10 m/S 742 mmHg 27%
12:00 +26°C° 0 mm 10 m/S 741 mmHg 25%
13:00 +27°C° 0 mm 10 m/S 741 mmHg 24%
14:00 +28°C° 0 mm 10 m/S 741 mmHg 22%
15:00 +28°C° 0 mm 9 m/S 741 mmHg 24%
16:00 +27°C° 0 mm 8 m/S 741 mmHg 27%
17:00 +26°C° 0 mm 7 m/S 741 mmHg 29%
18:00 +24°C° 0.1 mm 7 m/S 741 mmHg 30%
19:00 +23°C° 0.1 mm 8 m/S 741 mmHg 32%
20:00 +22°C° 0.1 mm 9 m/S 742 mmHg 33%
21:00 +21°C° 0.1 mm 9 m/S 742 mmHg 36%
22:00 +19°C° 0.1 mm 9 m/S 742 mmHg 39%
23:00 +18°C° 0.1 mm 9 m/S 742 mmHg 43%

28 September, Montag

Zeit Temperatur Niederschläge Wind Luftdruck Luftfeuchtigkeit
00:00 +17°C° 0.6 mm 8 m/S 742 mmHg 49%
01:00 +16°C° 0.6 mm 8 m/S 742 mmHg 56%
02:00 +16°C° 0.6 mm 7 m/S 742 mmHg 62%
03:00 +15°C° 0.7 mm 7 m/S 742 mmHg 65%
04:00 +15°C° 0.7 mm 6 m/S 742 mmHg 68%
05:00 +14°C° 0.7 mm 6 m/S 742 mmHg 71%
06:00 +14°C° 0.5 mm 5 m/S 742 mmHg 69%
07:00 +15°C° 0.5 mm 5 m/S 743 mmHg 68%
08:00 +15°C° 0.5 mm 5 m/S 743 mmHg 67%
09:00 +15°C° 0.5 mm 5 m/S 743 mmHg 68%
10:00 +15°C° 0.5 mm 5 m/S 743 mmHg 69%
11:00 +15°C° 0.5 mm 5 m/S 743 mmHg 70%
12:00 +16°C° 0.1 mm 5 m/S 742 mmHg 65%
13:00 +19°C° 0.1 mm 5 m/S 742 mmHg 60%
14:00 +20°C° 0.1 mm 4 m/S 742 mmHg 55%
15:00 +19°C° 0 mm 4 m/S 742 mmHg 59%
16:00 +19°C° 0 mm 4 m/S 742 mmHg 63%
17:00 +18°C° 0 mm 4 m/S 741 mmHg 67%
18:00 +17°C° 0.3 mm 4 m/S 741 mmHg 73%
19:00 +17°C° 0.3 mm 4 m/S 742 mmHg 79%
20:00 +15°C° 0.3 mm 4 m/S 742 mmHg 85%
21:00 +14°C° 0.3 mm 3 m/S 742 mmHg 86%
22:00 +14°C° 0.3 mm 3 m/S 742 mmHg 86%
23:00 +15°C° 0.3 mm 2 m/S 742 mmHg 87%
Mehr zeigen